Regional Weather Roundup
Issued by NWS

Home | Current Version | Previous Version | Text Only | Print | Product List | Glossary On
Versions: 1 2 3 4 5 6 7 8 9 10 11 12 13 14 15 16 17 18 19 20 21 22 23 24 25 26 27 28 29 30 31 32 33 34 35 36 37 38 39 40 41 42 43 44 45 46 47 48 49 50
000
ASUS45 KREV 270310
RWRNV
NEVADA REGIONAL WEATHER ROUNDUP
NATIONAL WEATHER SERVICE RENO NV
800 PM PDT THU MAY 26 2016

NOTE: "FAIR" INDICATES FEW OR NO CLOUDS BELOW 12,000 FEET WITH NO
SIGNIFICANT WEATHER AND/OR OBSTRUCTIONS TO VISIBILITY.

NVZ001-003-004-270400-
WESTERN NEVADA

CITY           SKY/WX    TMP DP  RH WIND       PRES   REMARKS
RENO           MOCLDY    69  39  33 W13       30.01S
CARSON CITY    FAIR      64  37  36 NW9       30.05R
MINDEN         FAIR      59  41  51 W13       30.05R
SLIDE MTN        N/A     37  32  81 W14         N/A
PYRAMID LAKE     N/A     70 N/A N/A S1          N/A
FALLON         PTCLDY    69  27  20 W5        29.98S
LOVELOCK       CLEAR     71  28  20 W10       29.97S
HAWTHORNE      CLEAR     66  36  32 SW5       30.02R
$$

NVZ002-CAZ072-073-270400-
NORTHERN AND CENTRAL SIERRA

CITY           SKY/WX    TMP DP  RH WIND       PRES   REMARKS
S. LAKE TAHOE  CLEAR     54  40  59 S6        30.13R
TRUCKEE        PTCLDY    52  41  66 W10       30.13R
SQUAW VLY 8000 NOT AVBL
SUSANVILLE     CLEAR     64  43  45 W10       30.03R
BLUE CANYON    PTCLDY    56  42  59 VRB5      30.14R
MAMMOTH LAKES  MOCLDY    53  37  53 W9        30.13R
BRIDGEPORT     CLOUDY    52  33  48 VRB3      30.10R
$$

NVZ030-031-036-270400-
NORTHERN NEVADA

CITY           SKY/WX    TMP DP  RH WIND       PRES   REMARKS
ELKO           PTCLDY    57  42  57 NE6       30.03R
WINNEMUCCA     CLEAR     61  30  31 W6        29.97S
WENDOVER       PTCLDY    63  36  36 NE6       29.97S
$$

NVZ035-037-270400-
CENTRAL NEVADA

CITY           SKY/WX    TMP DP  RH WIND       PRES   REMARKS
ELY            PTCLDY    52  36  54 NW7       30.05R
EUREKA           N/A     53  41  63 CALM      30.06R
$$

NVZ013-014-270400-
SOUTH CENTRAL NEVADA

CITY           SKY/WX    TMP DP  RH WIND       PRES   REMARKS
TONOPAH        CLEAR     63  30  28 NW14      30.03R
$$

NVZ017-020-022-270400-
SOUTHERN NEVADA

CITY           SKY/WX    TMP DP  RH WIND       PRES   REMARKS
LAS VEGAS      PTCLDY    81  30  15 W5        29.80R
N. LAS VEGAS   CLEAR     81  32  17 W5        29.83R
NELLIS AFB     PTCLDY    83  33  16 NW9       29.81R
HENDERSON      CLEAR     79  33  19 W8        29.87S
MERCURY        PTCLDY    74  29  19 SW3       29.89R
$$



USA.gov is the U.S. government's official web portal to all federal, state and local government web resources and services.